Time,TemperatureF,DewpointF,PressureIn,WindDirection,WindDirectionDegrees,WindSpeedMPH,WindSpeedGustMPH,Humidity,HourlyPrecipIn,Conditions,Clouds,dailyrainin,SoftwareType,DateUTC
2013-07-09 00:00:00,72.7,69.3,30.04,WSW,249,0.0,0.0,89,0.00,,---,0.00,VWS V14.01,2013-07-09 04:00:00,
2013-07-09 00:01:00,72.7,69.3,30.04,WSW,249,0.0,0.0,89,0.00,,---,0.00,VWS V14.01,2013-07-09 04:01:00,
2013-07-09 00:06:00,72.5,69.4,30.05,WSW,250,0.0,0.0,90,0.00,,---,0.00,VWS V14.01,2013-07-09 04:06:00,
2013-07-09 00:11:00,72.3,69.2,30.04,WSW,249,0.0,0.0,90,0.00,,---,0.00,VWS V14.01,2013-07-09 04:11:00,
2013-07-09 00:16:00,72.1,69.0,30.04,WSW,249,0.0,0.0,90,0.00,,---,0.00,VWS V14.01,2013-07-09 04:16:00,
2013-07-09 00:21:00,72.0,69.2,30.04,WSW,249,0.0,0.0,91,0.00,,---,0.00,VWS V14.01,2013-07-09 04:21:00,
2013-07-09 00:26:00,71.8,69.0,30.04,WSW,249,0.0,0.0,91,0.00,,---,0.00,VWS V14.01,2013-07-09 04:26:00,
2013-07-09 00:31:00,71.7,68.9,30.04,WSW,249,0.0,0.0,91,0.00,,---,0.00,VWS V14.01,2013-07-09 04:31:00,
2013-07-09 00:36:00,71.6,69.2,30.05,WSW,249,0.0,0.0,92,0.00,,---,0.00,VWS V14.01,2013-07-09 04:36:00,
2013-07-09 00:41:00,71.6,69.2,30.04,WSW,249,0.0,0.0,92,0.00,,---,0.00,VWS V14.01,2013-07-09 04:41:00,
2013-07-09 00:46:00,71.7,69.3,30.04,WSW,249,0.0,0.0,92,0.00,,---,0.00,VWS V14.01,2013-07-09 04:46:00,
2013-07-09 00:51:00,71.7,69.3,30.04,WSW,249,0.0,0.0,92,0.00,,---,0.00,VWS V14.01,2013-07-09 04:51:00,
2013-07-09 00:56:00,71.7,69.3,30.04,WSW,249,0.0,0.0,92,0.00,,---,0.00,VWS V14.01,2013-07-09 04:56:00,
2013-07-09 01:01:00,71.6,69.2,30.04,WSW,249,0.0,0.0,92,0.00,,---,0.00,VWS V14.01,2013-07-09 05:01:00,
2013-07-09 01:06:00,71.6,69.2,30.04,WSW,249,0.0,0.0,92,0.00,,---,0.00,VWS V14.01,2013-07-09 05:06:00,
2013-07-09 01:11:00,71.4,69.0,30.04,WSW,249,0.0,0.0,92,0.00,,---,0.00,VWS V14.01,2013-07-09 05:11:00,
2013-07-09 01:16:00,71.3,68.9,30.04,WSW,249,0.0,0.0,92,0.00,,---,0.00,VWS V14.01,2013-07-09 05:16:00,
2013-07-09 01:21:00,71.3,69.2,30.04,WSW,249,0.0,0.0,93,0.00,,---,0.00,VWS V14.01,2013-07-09 05:21:00,
2013-07-09 01:26:00,71.2,69.1,30.04,WSW,249,0.0,0.0,93,0.00,,---,0.00,VWS V14.01,2013-07-09 05:26:00,
2013-07-09 01:31:00,71.3,69.2,30.04,WSW,249,0.0,0.0,93,0.00,,---,0.00,VWS V14.01,2013-07-09 05:31:00,
2013-07-09 01:36:00,71.3,69.2,30.04,WSW,249,0.0,0.0,93,0.00,,---,0.00,VWS V14.01,2013-07-09 05:36:00,
2013-07-09 01:41:00,71.3,68.9,30.04,WSW,249,0.0,0.0,92,0.00,,---,0.00,VWS V14.01,2013-07-09 05:41:00,
2013-07-09 01:46:00,71.3,68.9,30.04,WSW,249,0.0,0.0,92,0.00,,---,0.00,VWS V14.01,2013-07-09 05:46:00,
2013-07-09 01:51:00,71.3,68.9,30.04,WSW,249,0.0,0.0,92,0.00,,---,0.00,VWS V14.01,2013-07-09 05:51:00,
2013-07-09 01:56:00,71.2,68.8,30.04,WSW,249,0.0,0.0,92,0.00,,---,0.00,VWS V14.01,2013-07-09 05:56:00,
2013-07-09 02:01:00,71.2,68.8,30.04,WSW,249,0.0,0.0,92,0.00,,---,0.00,VWS V14.01,2013-07-09 06:01:00,
2013-07-09 02:06:00,71.3,68.9,30.04,WSW,249,0.0,0.0,92,0.00,,---,0.00,VWS V14.01,2013-07-09 06:06:00,
2013-07-09 02:11:00,71.3,68.9,30.04,WSW,249,0.0,0.0,92,0.00,,---,0.00,VWS V14.01,2013-07-09 06:11:00,
2013-07-09 02:16:00,71.4,69.0,30.04,WSW,249,0.0,0.0,92,0.00,,---,0.00,VWS V14.01,2013-07-09 06:16:00,
2013-07-09 02:21:00,71.3,68.9,30.04,WSW,249,0.0,0.0,92,0.00,,---,0.00,VWS V14.01,2013-07-09 06:21:00,
2013-07-09 02:26:00,71.3,68.9,30.04,WSW,249,0.0,0.0,92,0.00,,---,0.00,VWS V14.01,2013-07-09 06:26:00,
2013-07-09 02:31:00,71.3,68.9,30.04,WSW,249,0.0,0.0,92,0.00,,---,0.00,VWS V14.01,2013-07-09 06:31:00,
2013-07-09 02:36:00,71.2,68.8,30.04,WSW,249,0.0,0.0,92,0.00,,---,0.00,VWS V14.01,2013-07-09 06:36:00,
2013-07-09 02:41:00,71.1,68.7,30.04,WSW,250,0.0,0.0,92,0.00,,---,0.00,VWS V14.01,2013-07-09 06:41:00,
2013-07-09 02:46:00,70.9,68.5,30.04,WSW,249,0.0,0.0,92,0.00,,---,0.00,VWS V14.01,2013-07-09 06:46:00,
2013-07-09 02:51:00,70.7,68.3,30.04,WSW,249,0.0,0.0,92,0.00,,---,0.00,VWS V14.01,2013-07-09 06:51:00,
2013-07-09 02:56:00,70.6,68.2,30.04,WSW,249,0.0,0.0,92,0.00,,---,0.00,VWS V14.01,2013-07-09 06:56:00,
2013-07-09 03:01:00,70.5,68.1,30.04,WSW,249,0.0,0.0,92,0.00,,---,0.00,VWS V14.01,2013-07-09 07:01:00,
2013-07-09 03:06:00,70.4,68.3,30.04,WSW,249,0.0,0.0,93,0.00,,---,0.00,VWS V14.01,2013-07-09 07:06:00,
2013-07-09 03:11:00,70.3,67.9,30.04,WSW,249,0.0,0.0,92,0.00,,---,0.00,VWS V14.01,2013-07-09 07:11:00,
2013-07-09 03:16:00,70.2,68.1,30.04,WSW,250,0.0,0.0,93,0.00,,---,0.00,VWS V14.01,2013-07-09 07:16:00,
2013-07-09 03:21:00,70.1,68.0,30.03,WSW,249,0.0,0.0,93,0.00,,---,0.00,VWS V14.01,2013-07-09 07:21:00,
2013-07-09 03:26:00,70.1,68.0,30.03,WSW,249,0.0,0.0,93,0.00,,---,0.00,VWS V14.01,2013-07-09 07:26:00,
2013-07-09 03:31:00,70.0,67.9,30.04,WSW,248,0.0,0.0,93,0.00,,---,0.00,VWS V14.01,2013-07-09 07:31:00,
2013-07-09 03:36:00,69.9,67.8,30.03,WSW,249,0.0,0.0,93,0.00,,---,0.00,VWS V14.01,2013-07-09 07:36:00,
2013-07-09 03:41:00,69.7,67.9,30.04,WSW,249,0.0,0.0,94,0.00,,---,0.00,VWS V14.01,2013-07-09 07:41:00,
2013-07-09 03:46:00,69.6,67.8,30.03,WSW,249,0.0,0.0,94,0.00,,---,0.00,VWS V14.01,2013-07-09 07:46:00,
2013-07-09 03:52:00,69.4,67.6,30.03,WSW,249,0.0,0.0,94,0.00,,---,0.00,VWS V14.01,2013-07-09 07:52:00,
2013-07-09 03:57:00,69.3,67.5,30.04,WSW,249,0.0,0.0,94,0.00,,---,0.00,VWS V14.01,2013-07-09 07:57:00,
2013-07-09 04:02:00,69.3,67.5,30.03,WSW,249,0.0,0.0,94,0.00,,---,0.00,VWS V14.01,2013-07-09 08:02:00,
2013-07-09 04:07:00,69.2,67.4,30.03,WSW,249,0.0,0.0,94,0.00,,---,0.00,VWS V14.01,2013-07-09 08:07:00,
2013-07-09 04:12:00,69.2,67.4,30.03,WSW,249,0.0,0.0,94,0.00,,---,0.00,VWS V14.01,2013-07-09 08:12:00,
2013-07-09 04:17:00,69.2,67.4,30.04,WSW,249,0.0,0.0,94,0.00,,---,0.00,VWS V14.01,2013-07-09 08:17:00,
2013-07-09 04:22:00,69.0,67.2,30.04,WSW,249,0.0,0.0,94,0.00,,---,0.00,VWS V14.01,2013-07-09 08:22:00,
2013-07-09 04:27:00,69.0,67.2,30.04,WSW,249,0.0,0.0,94,0.00,,---,0.00,VWS V14.01,2013-07-09 08:27:00,
2013-07-09 04:32:00,68.9,67.4,30.04,WSW,249,0.0,0.0,95,0.00,,---,0.00,VWS V14.01,2013-07-09 08:32:00,
2013-07-09 04:37:00,68.9,67.4,30.04,WSW,249,0.0,0.0,95,0.00,,---,0.00,VWS V14.01,2013-07-09 08:37:00,
2013-07-09 04:42:00,68.9,67.4,30.05,WSW,249,0.0,0.0,95,0.00,,---,0.00,VWS V14.01,2013-07-09 08:42:00,
2013-07-09 04:47:00,68.8,67.3,30.05,WSW,249,0.0,0.0,95,0.00,,---,0.00,VWS V14.01,2013-07-09 08:47:00,
2013-07-09 04:52:00,68.8,67.3,30.05,WSW,249,0.0,0.0,95,0.00,,---,0.00,VWS V14.01,2013-07-09 08:52:00,
2013-07-09 04:57:00,68.8,67.3,30.05,WSW,249,0.0,0.0,95,0.00,,---,0.00,VWS V14.01,2013-07-09 08:57:00,
2013-07-09 05:02:00,68.8,67.3,30.05,WSW,249,0.0,0.0,95,0.00,,---,0.00,VWS V14.01,2013-07-09 09:02:00,
2013-07-09 05:07:00,68.8,67.3,30.05,WSW,249,0.0,0.0,95,0.00,,---,0.00,VWS V14.01,2013-07-09 09:07:00,
2013-07-09 05:12:00,68.6,67.1,30.05,WSW,249,0.0,0.0,95,0.00,,---,0.00,VWS V14.01,2013-07-09 09:12:00,
2013-07-09 05:17:00,68.6,67.1,30.05,WSW,249,0.0,0.0,95,0.00,,---,0.00,VWS V14.01,2013-07-09 09:17:00,
2013-07-09 05:22:00,68.6,67.1,30.05,WSW,249,0.0,0.0,95,0.00,,---,0.00,VWS V14.01,2013-07-09 09:22:00,
2013-07-09 05:27:00,68.6,67.1,30.05,WSW,249,0.0,0.0,95,0.00,,---,0.00,VWS V14.01,2013-07-09 09:27:00,
2013-07-09 05:32:00,68.5,67.3,30.05,WSW,249,0.0,0.0,96,0.00,,---,0.00,VWS V14.01,2013-07-09 09:32:00,
2013-07-09 05:37:00,68.6,67.4,30.05,WSW,249,0.0,0.0,96,0.00,,---,0.00,VWS V14.01,2013-07-09 09:37:00,
2013-07-09 05:42:00,68.6,67.4,30.05,WSW,249,0.0,0.0,96,0.00,,---,0.00,VWS V14.01,2013-07-09 09:42:00,
2013-07-09 05:47:00,68.6,67.4,30.05,WSW,249,0.0,0.0,96,0.00,,---,0.00,VWS V14.01,2013-07-09 09:47:00,
2013-07-09 05:52:00,68.5,67.3,30.06,WSW,249,0.0,0.0,96,0.00,,---,0.00,VWS V14.01,2013-07-09 09:52:00,
2013-07-09 05:57:00,68.4,67.2,30.06,WSW,249,0.0,0.0,96,0.00,,---,0.00,VWS V14.01,2013-07-09 09:57:00,
2013-07-09 06:02:00,68.4,67.2,30.06,WSW,249,0.0,0.0,96,0.00,,---,0.00,VWS V14.01,2013-07-09 10:02:00,
2013-07-09 06:07:00,68.4,67.2,30.06,WSW,249,0.0,0.0,96,0.00,,---,0.00,VWS V14.01,2013-07-09 10:07:00,
2013-07-09 06:12:00,68.4,67.2,30.06,WSW,249,0.0,0.0,96,0.00,,---,0.00,VWS V14.01,2013-07-09 10:12:00,
2013-07-09 06:17:00,68.5,67.3,30.06,WSW,249,0.0,0.0,96,0.00,,---,0.00,VWS V14.01,2013-07-09 10:17:00,
2013-07-09 06:22:00,68.5,67.3,30.07,WSW,249,0.0,0.0,96,0.00,,---,0.00,VWS V14.01,2013-07-09 10:22:00,
2013-07-09 06:27:00,68.5,67.3,30.06,WSW,249,0.0,0.0,96,0.00,,---,0.00,VWS V14.01,2013-07-09 10:27:00,
2013-07-09 06:32:00,68.7,67.8,30.06,WSW,249,0.0,0.0,97,0.00,,---,0.00,VWS V14.01,2013-07-09 10:32:00,
2013-07-09 06:37:00,68.9,68.0,30.06,WSW,249,0.0,0.0,97,0.00,,---,0.00,VWS V14.01,2013-07-09 10:37:00,
2013-07-09 06:42:00,69.2,68.3,30.07,West,270,2.0,3.0,97,0.00,,---,0.00,VWS V14.01,2013-07-09 10:42:00,
2013-07-09 06:47:00,69.7,68.5,30.07,WSW,255,0.0,5.0,96,0.00,,---,0.00,VWS V14.01,2013-07-09 10:47:00,
2013-07-09 06:52:00,69.9,68.4,30.07,SE,132,0.0,5.0,95,0.00,,---,0.00,VWS V14.01,2013-07-09 10:52:00,
2013-07-09 06:57:00,70.2,68.4,30.07,West,277,0.0,5.0,94,0.00,,---,0.00,VWS V14.01,2013-07-09 10:57:00,
2013-07-09 07:02:00,70.5,68.4,30.07,WSW,253,0.0,0.0,93,0.00,,---,0.00,VWS V14.01,2013-07-09 11:02:00,
2013-07-09 07:07:00,70.8,68.7,30.07,WSW,253,0.0,0.0,93,0.00,,---,0.00,VWS V14.01,2013-07-09 11:07:00,
2013-07-09 07:12:00,71.0,68.9,30.07,SSE,149,0.0,1.0,93,0.00,,---,0.00,VWS V14.01,2013-07-09 11:12:00,
2013-07-09 07:17:00,71.2,68.8,30.07,SSE,149,0.0,1.0,92,0.00,,---,0.00,VWS V14.01,2013-07-09 11:17:00,
2013-07-09 07:22:00,71.5,69.1,30.07,South,174,1.0,1.0,92,0.00,,---,0.00,VWS V14.01,2013-07-09 11:22:00,
2013-07-09 07:27:00,71.8,69.0,30.07,SW,217,0.0,1.0,91,0.00,,---,0.00,VWS V14.01,2013-07-09 11:27:00,
2013-07-09 07:32:00,72.2,69.1,30.07,WNW,285,1.0,1.0,90,0.00,,---,0.00,VWS V14.01,2013-07-09 11:32:00,
2013-07-09 07:37:00,72.6,68.8,30.07,West,266,0.0,1.0,88,0.00,,---,0.00,VWS V14.01,2013-07-09 11:37:00,
2013-07-09 07:42:00,73.4,69.0,30.07,West,264,0.0,3.0,86,0.00,,---,0.00,VWS V14.01,2013-07-09 11:42:00,
2013-07-09 07:47:00,74.0,69.2,30.07,North,354,1.0,3.0,85,0.00,,---,0.00,VWS V14.01,2013-07-09 11:47:00,
2013-07-09 07:52:00,74.4,69.6,30.06,NNE,23,0.0,3.0,85,0.00,,---,0.00,VWS V14.01,2013-07-09 11:52:00,
2013-07-09 07:57:00,74.8,70.0,30.06,NNE,23,0.0,3.0,85,0.00,,---,0.00,VWS V14.01,2013-07-09 11:57:00,
2013-07-09 08:02:00,75.1,69.9,30.07,NNE,25,0.0,0.0,84,0.00,,---,0.00,VWS V14.01,2013-07-09 12:02:00,
2013-07-09 08:07:00,75.5,69.6,30.07,West,274,0.0,0.0,82,0.00,,---,0.00,VWS V14.01,2013-07-09 12:07:00,
2013-07-09 08:12:00,75.9,70.0,30.07,West,271,3.0,4.0,82,0.00,,---,0.00,VWS V14.01,2013-07-09 12:12:00,
2013-07-09 08:17:00,76.1,69.5,30.07,SSE,152,0.0,4.0,80,0.00,,---,0.00,VWS V14.01,2013-07-09 12:17:00,
2013-07-09 08:22:00,76.5,69.9,30.07,SE,143,1.0,4.0,80,0.00,,---,0.00,VWS V14.01,2013-07-09 12:22:00,
2013-07-09 08:27:00,76.8,70.5,30.07,West,281,2.0,4.0,81,0.00,,---,0.00,VWS V14.01,2013-07-09 12:27:00,
2013-07-09 08:32:00,76.7,70.1,30.07,WNW,290,1.0,2.0,80,0.00,,---,0.00,VWS V14.01,2013-07-09 12:32:00,
2013-07-09 08:37:00,76.5,70.2,30.07,West,277,1.0,3.0,81,0.00,,---,0.00,VWS V14.01,2013-07-09 12:37:00,
2013-07-09 08:42:00,76.4,70.1,30.07,West,262,2.0,3.0,81,0.00,,---,0.00,VWS V14.01,2013-07-09 12:42:00,
2013-07-09 08:47:00,76.4,70.1,30.07,West,264,2.0,3.0,81,0.00,,---,0.00,VWS V14.01,2013-07-09 12:47:00,
2013-07-09 08:52:00,76.6,70.3,30.07,West,273,1.0,3.0,81,0.00,,---,0.00,VWS V14.01,2013-07-09 12:52:00,
2013-07-09 08:57:00,76.8,70.2,30.07,West,259,0.0,3.0,80,0.00,,---,0.00,VWS V14.01,2013-07-09 12:57:00,
2013-07-09 09:02:00,77.2,70.6,30.07,WSW,245,0.0,0.0,80,0.00,,---,0.00,VWS V14.01,2013-07-09 13:02:00,
2013-07-09 09:07:00,77.4,70.8,30.07,West,267,1.0,4.0,80,0.00,,---,0.00,VWS V14.01,2013-07-09 13:07:00,
2013-07-09 09:12:00,77.6,70.9,30.07,SW,233,0.0,4.0,80,0.00,,---,0.00,VWS V14.01,2013-07-09 13:12:00,
2013-07-09 09:17:00,77.9,70.9,30.07,SW,226,1.0,4.0,79,0.00,,---,0.00,VWS V14.01,2013-07-09 13:17:00,
2013-07-09 09:22:00,78.1,70.7,30.07,West,271,1.0,4.0,78,0.00,,---,0.00,VWS V14.01,2013-07-09 13:22:00,
2013-07-09 09:27:00,78.1,71.1,30.06,West,273,3.0,4.0,79,0.00,,---,0.00,VWS V14.01,2013-07-09 13:27:00,
2013-07-09 09:32:00,78.1,70.3,30.06,West,269,3.0,4.0,77,0.00,,---,0.00,VWS V14.01,2013-07-09 13:32:00,
2013-07-09 09:37:00,78.3,70.9,30.06,West,262,2.0,4.0,78,0.00,,---,0.00,VWS V14.01,2013-07-09 13:37:00,
2013-07-09 09:42:00,78.6,71.2,30.06,WSW,253,0.0,4.0,78,0.00,,---,0.00,VWS V14.01,2013-07-09 13:42:00,
2013-07-09 09:47:00,79.0,70.8,30.07,WNW,301,0.0,4.0,76,0.00,,---,0.00,VWS V14.01,2013-07-09 13:47:00,
2013-07-09 09:52:00,79.5,71.7,30.06,SSE,165,0.0,4.0,77,0.00,,---,0.00,VWS V14.01,2013-07-09 13:52:00,
2013-07-09 09:57:00,79.9,71.3,30.06,SSE,147,0.0,4.0,75,0.00,,---,0.00,VWS V14.01,2013-07-09 13:57:00,
2013-07-09 10:02:00,80.3,71.7,30.06,SE,146,2.0,2.0,75,0.00,,---,0.00,VWS V14.01,2013-07-09 14:02:00,
2013-07-09 10:07:00,80.6,71.6,30.06,SE,141,0.0,2.0,74,0.00,,---,0.00,VWS V14.01,2013-07-09 14:07:00,
2013-07-09 10:12:00,81.0,72.3,30.06,SE,141,0.0,2.0,75,0.00,,---,0.00,VWS V14.01,2013-07-09 14:12:00,
2013-07-09 10:17:00,81.1,71.6,30.06,West,279,1.0,3.0,73,0.00,,---,0.00,VWS V14.01,2013-07-09 14:17:00,
2013-07-09 10:22:00,81.0,71.1,30.06,West,271,1.0,3.0,72,0.00,,---,0.00,VWS V14.01,2013-07-09 14:22:00,
2013-07-09 10:27:00,80.8,70.9,30.06,West,276,0.0,3.0,72,0.00,,---,0.00,VWS V14.01,2013-07-09 14:27:00,
2013-07-09 10:32:00,81.3,71.8,30.06,ESE,118,0.0,2.0,73,0.00,,---,0.00,VWS V14.01,2013-07-09 14:32:00,
2013-07-09 10:37:00,81.6,71.7,30.06,SE,131,0.0,2.0,72,0.00,,---,0.00,VWS V14.01,2013-07-09 14:37:00,
2013-07-09 10:42:00,82.0,71.7,30.06,SE,141,1.0,4.0,71,0.00,,---,0.00,VWS V14.01,2013-07-09 14:42:00,
2013-07-09 10:47:00,82.1,71.3,30.06,WSW,249,1.0,5.0,70,0.00,,---,0.00,VWS V14.01,2013-07-09 14:47:00,
2013-07-09 10:52:00,82.3,71.5,30.05,NNW,333,0.0,5.0,70,0.00,,---,0.00,VWS V14.01,2013-07-09 14:52:00,
2013-07-09 10:57:00,82.6,71.0,30.05,WSW,255,0.0,5.0,68,0.00,,---,0.00,VWS V14.01,2013-07-09 14:57:00,
2013-07-09 11:02:00,82.6,70.5,30.06,West,276,3.0,4.0,67,0.00,,---,0.00,VWS V14.01,2013-07-09 15:02:00,
2013-07-09 11:07:00,82.4,70.3,30.06,WSW,255,2.0,6.0,67,0.00,,---,0.00,VWS V14.01,2013-07-09 15:07:00,
2013-07-09 11:12:00,82.4,71.2,30.06,WSW,239,1.0,6.0,69,0.00,,---,0.00,VWS V14.01,2013-07-09 15:12:00,
2013-07-09 11:17:00,82.3,71.1,30.06,West,273,1.0,6.0,69,0.00,,---,0.00,VWS V14.01,2013-07-09 15:17:00,
2013-07-09 11:22:00,82.0,70.8,30.06,West,276,2.0,6.0,69,0.00,,---,0.00,VWS V14.01,2013-07-09 15:22:00,
2013-07-09 11:27:00,82.2,71.4,30.06,NW,316,1.0,6.0,70,0.00,,---,0.00,VWS V14.01,2013-07-09 15:27:00,
2013-07-09 11:32:00,83.2,72.0,30.06,SE,144,0.0,1.0,69,0.00,,---,0.00,VWS V14.01,2013-07-09 15:32:00,
2013-07-09 11:37:00,84.3,72.2,30.05,SSE,149,0.0,2.0,67,0.00,,---,0.00,VWS V14.01,2013-07-09 15:37:00,
2013-07-09 11:42:00,84.3,72.2,30.05,SE,132,0.0,4.0,67,0.00,,---,0.00,VWS V14.01,2013-07-09 15:42:00,
2013-07-09 11:47:00,85.0,71.9,30.05,SW,229,0.0,4.0,65,0.00,,---,0.00,VWS V14.01,2013-07-09 15:47:00,
2013-07-09 11:52:00,85.8,73.1,30.05,NE,47,0.0,4.0,66,0.00,,---,0.00,VWS V14.01,2013-07-09 15:52:00,
2013-07-09 11:57:00,86.5,72.4,30.05,SSE,152,0.0,4.0,63,0.00,,---,0.00,VWS V14.01,2013-07-09 15:57:00,
2013-07-09 12:02:00,86.9,73.3,30.05,West,276,0.0,0.0,64,0.00,,---,0.00,VWS V14.01,2013-07-09 16:02:00,
2013-07-09 12:07:00,87.0,72.4,30.05,SSE,153,1.0,2.0,62,0.00,,---,0.00,VWS V14.01,2013-07-09 16:07:00,
2013-07-09 12:12:00,87.3,73.2,30.05,SE,134,1.0,2.0,63,0.00,,---,0.00,VWS V14.01,2013-07-09 16:12:00,
2013-07-09 12:17:00,86.4,70.9,30.05,West,273,1.0,5.0,60,0.00,,---,0.00,VWS V14.01,2013-07-09 16:17:00,
2013-07-09 12:22:00,85.4,72.3,30.05,West,266,0.0,5.0,65,0.00,,---,0.00,VWS V14.01,2013-07-09 16:22:00,
2013-07-09 12:27:00,85.3,71.8,30.05,West,277,1.0,5.0,64,0.00,,---,0.00,VWS V14.01,2013-07-09 16:27:00,
2013-07-09 12:32:00,85.2,73.0,30.05,WNW,300,1.0,1.0,67,0.00,,---,0.00,VWS V14.01,2013-07-09 16:32:00,
2013-07-09 12:37:00,85.5,73.3,30.05,NW,309,0.0,1.0,67,0.00,,---,0.00,VWS V14.01,2013-07-09 16:37:00,
2013-07-09 12:42:00,86.3,73.6,30.05,WSW,245,1.0,3.0,66,0.00,,---,0.00,VWS V14.01,2013-07-09 16:42:00,
2013-07-09 12:47:00,86.7,73.5,30.04,NNW,328,0.0,3.0,65,0.00,,---,0.00,VWS V14.01,2013-07-09 16:47:00,
2013-07-09 12:52:00,86.6,72.5,30.04,West,279,1.0,4.0,63,0.00,,---,0.00,VWS V14.01,2013-07-09 16:52:00,
2013-07-09 12:57:00,86.5,72.9,30.04,SE,135,1.0,4.0,64,0.00,,---,0.00,VWS V14.01,2013-07-09 16:57:00,
2013-07-09 13:02:00,87.4,72.8,30.04,WNW,284,1.0,2.0,62,0.00,,---,0.00,VWS V14.01,2013-07-09 17:02:00,
2013-07-09 13:07:00,86.7,72.6,30.04,SE,141,0.0,3.0,63,0.00,,---,0.00,VWS V14.01,2013-07-09 17:07:00,
2013-07-09 13:12:00,87.0,72.4,30.04,SW,219,2.0,3.0,62,0.00,,---,0.00,VWS V14.01,2013-07-09 17:12:00,
2013-07-09 13:17:00,86.8,72.7,30.04,West,276,0.0,3.0,63,0.00,,---,0.00,VWS V14.01,2013-07-09 17:17:00,
2013-07-09 13:22:00,86.9,71.8,30.04,West,280,3.0,5.0,61,0.00,,---,0.00,VWS V14.01,2013-07-09 17:22:00,
2013-07-09 13:27:00,87.4,72.3,30.03,West,266,3.0,5.0,61,0.00,,---,0.00,VWS V14.01,2013-07-09 17:27:00,
2013-07-09 13:32:00,87.7,70.6,30.03,West,276,5.0,6.0,57,0.00,,---,0.00,VWS V14.01,2013-07-09 17:32:00,
2013-07-09 13:37:00,86.8,70.3,30.03,West,277,0.0,6.0,58,0.00,,---,0.00,VWS V14.01,2013-07-09 17:37:00,
2013-07-09 13:42:00,87.1,71.0,30.03,NW,324,1.0,6.0,59,0.00,,---,0.00,VWS V14.01,2013-07-09 17:42:00,
2013-07-09 13:47:00,87.7,71.6,30.03,West,272,4.0,6.0,59,0.00,,---,0.00,VWS V14.01,2013-07-09 17:47:00,
2013-07-09 13:52:00,87.0,69.4,30.03,West,264,0.0,6.0,56,0.00,,---,0.00,VWS V14.01,2013-07-09 17:52:00,
2013-07-09 13:57:00,87.0,70.9,30.03,West,262,2.0,6.0,59,0.00,,---,0.00,VWS V14.01,2013-07-09 17:57:00,
2013-07-09 14:02:00,87.2,72.6,30.03,SE,135,2.0,2.0,62,0.00,,---,0.00,VWS V14.01,2013-07-09 18:02:00,
2013-07-09 14:07:00,87.9,72.3,30.03,West,271,2.0,4.0,60,0.00,,---,0.00,VWS V14.01,2013-07-09 18:07:00,
2013-07-09 14:12:00,87.5,70.9,30.02,South,179,1.0,6.0,58,0.00,,---,0.00,VWS V14.01,2013-07-09 18:12:00,
2013-07-09 14:17:00,87.5,72.4,30.02,West,274,1.0,6.0,61,0.00,,---,0.00,VWS V14.01,2013-07-09 18:17:00,
2013-07-09 14:22:00,87.4,73.3,30.02,West,259,1.0,6.0,63,0.00,,---,0.00,VWS V14.01,2013-07-09 18:22:00,
2013-07-09 14:27:00,87.5,71.9,30.02,WSW,242,0.0,6.0,60,0.00,,---,0.00,VWS V14.01,2013-07-09 18:27:00,
2013-07-09 14:32:00,86.9,72.3,30.02,West,263,1.0,1.0,62,0.00,,---,0.00,VWS V14.01,2013-07-09 18:32:00,
2013-07-09 14:37:00,87.5,72.4,30.02,SSE,153,1.0,2.0,61,0.00,,---,0.00,VWS V14.01,2013-07-09 18:37:00,
2013-07-09 14:42:00,87.9,72.8,30.02,WNW,283,1.0,2.0,61,0.00,,---,0.00,VWS V14.01,2013-07-09 18:42:00,
2013-07-09 14:47:00,87.6,73.5,30.02,West,277,1.0,2.0,63,0.00,,---,0.00,VWS V14.01,2013-07-09 18:47:00,
2013-07-09 14:52:00,87.3,73.2,30.02,West,260,0.0,3.0,63,0.00,,---,0.00,VWS V14.01,2013-07-09 18:52:00,
2013-07-09 14:57:00,87.7,73.6,30.01,WNW,300,0.0,3.0,63,0.00,,---,0.00,VWS V14.01,2013-07-09 18:57:00,
2013-07-09 15:02:00,87.9,72.8,30.01,WNW,283,1.0,1.0,61,0.00,,---,0.00,VWS V14.01,2013-07-09 19:02:00,
2013-07-09 15:07:00,88.2,74.0,30.01,West,274,2.0,6.0,63,0.00,,---,0.00,VWS V14.01,2013-07-09 19:07:00,
2013-07-09 15:12:00,87.8,73.2,30.01,WSW,257,1.0,6.0,62,0.00,,---,0.00,VWS V14.01,2013-07-09 19:12:00,
2013-07-09 15:17:00,87.8,69.6,30.01,West,279,5.0,8.0,55,0.00,,---,0.00,VWS V14.01,2013-07-09 19:17:00,
2013-07-09 15:22:00,87.4,68.7,30.01,WNW,297,1.0,9.0,54,0.00,,---,0.00,VWS V14.01,2013-07-09 19:22:00,
2013-07-09 15:27:00,87.4,69.3,30.01,West,281,2.0,9.0,55,0.00,,---,0.00,VWS V14.01,2013-07-09 19:27:00,
2013-07-09 15:32:00,87.0,66.7,30.01,WNW,284,6.0,9.0,51,0.00,,---,0.00,VWS V14.01,2013-07-09 19:32:00,
2013-07-09 15:37:00,86.8,68.2,30.01,WSW,252,3.0,9.0,54,0.00,,---,0.00,VWS V14.01,2013-07-09 19:37:00,
2013-07-09 15:42:00,86.6,69.1,30.01,West,274,5.0,9.0,56,0.00,,---,0.00,VWS V14.01,2013-07-09 19:42:00,
2013-07-09 15:47:00,86.5,68.4,30.01,West,261,7.0,9.0,55,0.00,,---,0.00,VWS V14.01,2013-07-09 19:47:00,
2013-07-09 15:52:00,86.5,69.0,30.01,West,269,4.0,9.0,56,0.00,,---,0.00,VWS V14.01,2013-07-09 19:52:00,
2013-07-09 15:57:00,86.5,69.5,30.01,WNW,288,1.0,9.0,57,0.00,,---,0.00,VWS V14.01,2013-07-09 19:57:00,
2013-07-09 16:02:00,86.8,69.8,30.01,WNW,285,3.0,5.0,57,0.00,,---,0.00,VWS V14.01,2013-07-09 20:02:00,
2013-07-09 16:07:00,86.9,70.9,30.00,WNW,288,1.0,7.0,59,0.00,,---,0.00,VWS V14.01,2013-07-09 20:07:00,
2013-07-09 16:12:00,87.0,69.9,30.00,WNW,285,6.0,8.0,57,0.00,,---,0.00,VWS V14.01,2013-07-09 20:12:00,
2013-07-09 16:17:00,86.7,69.1,30.00,West,264,6.0,8.0,56,0.00,,---,0.00,VWS V14.01,2013-07-09 20:17:00,
2013-07-09 16:22:00,86.7,70.7,30.00,West,267,3.0,8.0,59,0.00,,---,0.00,VWS V14.01,2013-07-09 20:22:00,
2013-07-09 16:27:00,87.0,70.9,30.00,WSW,250,1.0,8.0,59,0.00,,---,0.00,VWS V14.01,2013-07-09 20:27:00,
2013-07-09 16:32:00,87.2,69.6,30.00,West,281,1.0,3.0,56,0.00,,---,0.00,VWS V14.01,2013-07-09 20:32:00,
2013-07-09 16:37:00,87.2,69.6,30.00,West,276,3.0,6.0,56,0.00,,---,0.00,VWS V14.01,2013-07-09 20:37:00,
2013-07-09 16:42:00,86.6,68.5,30.00,West,270,1.0,9.0,55,0.00,,---,0.00,VWS V14.01,2013-07-09 20:42:00,
2013-07-09 16:47:00,86.3,68.2,30.00,West,281,1.0,9.0,55,0.00,,---,0.00,VWS V14.01,2013-07-09 20:47:00,
2013-07-09 16:52:00,86.4,69.9,30.00,WSW,245,2.0,9.0,58,0.00,,---,0.00,VWS V14.01,2013-07-09 20:52:00,
2013-07-09 16:57:00,86.5,70.0,30.00,West,269,1.0,9.0,58,0.00,,---,0.00,VWS V14.01,2013-07-09 20:57:00,
2013-07-09 17:02:00,86.3,69.8,30.00,West,276,1.0,6.0,58,0.00,,---,0.00,VWS V14.01,2013-07-09 21:02:00,
2013-07-09 17:07:00,86.0,70.5,30.00,West,266,2.0,6.0,60,0.00,,---,0.00,VWS V14.01,2013-07-09 21:07:00,
2013-07-09 17:12:00,86.0,70.5,30.00,West,267,2.0,6.0,60,0.00,,---,0.00,VWS V14.01,2013-07-09 21:12:00,
2013-07-09 17:17:00,86.0,70.5,30.00,West,269,1.0,6.0,60,0.00,,---,0.00,VWS V14.01,2013-07-09 21:17:00,
2013-07-09 17:22:00,86.2,71.7,30.00,WNW,290,2.0,6.0,62,0.00,,---,0.00,VWS V14.01,2013-07-09 21:22:00,
2013-07-09 17:27:00,86.0,71.5,30.00,West,266,2.0,6.0,62,0.00,,---,0.00,VWS V14.01,2013-07-09 21:27:00,
2013-07-09 17:32:00,85.9,71.4,30.00,West,269,4.0,4.0,62,0.00,,---,0.00,VWS V14.01,2013-07-09 21:32:00,
2013-07-09 17:37:00,85.8,71.3,30.00,West,267,4.0,5.0,62,0.00,,---,0.00,VWS V14.01,2013-07-09 21:37:00,
2013-07-09 17:42:00,85.4,69.4,30.00,NW,307,1.0,5.0,59,0.00,,---,0.00,VWS V14.01,2013-07-09 21:42:00,
2013-07-09 17:47:00,85.3,70.3,30.00,West,266,1.0,5.0,61,0.00,,---,0.00,VWS V14.01,2013-07-09 21:47:00,
2013-07-09 17:52:00,85.4,71.4,29.99,West,271,0.0,5.0,63,0.00,,---,0.00,VWS V14.01,2013-07-09 21:52:00,
2013-07-09 17:57:00,85.5,71.0,29.99,West,266,0.0,5.0,62,0.00,,---,0.00,VWS V14.01,2013-07-09 21:57:00,
2013-07-09 18:02:00,85.5,70.5,29.99,West,264,0.0,3.0,61,0.00,,---,0.00,VWS V14.01,2013-07-09 22:02:00,
2013-07-09 18:07:00,85.4,71.8,29.99,WSW,255,0.0,3.0,64,0.00,,---,0.00,VWS V14.01,2013-07-09 22:07:00,
2013-07-09 18:12:00,85.4,72.3,29.99,WSW,255,0.0,3.0,65,0.00,,---,0.00,VWS V14.01,2013-07-09 22:12:00,
2013-07-09 18:17:00,84.8,71.3,29.99,West,277,1.0,3.0,64,0.00,,---,0.00,VWS V14.01,2013-07-09 22:17:00,
2013-07-09 18:22:00,84.4,73.1,29.99,West,276,1.0,3.0,69,0.00,,---,0.00,VWS V14.01,2013-07-09 22:22:00,
2013-07-09 18:27:00,83.9,72.2,29.99,West,274,1.0,3.0,68,0.00,,---,0.00,VWS V14.01,2013-07-09 22:27:00,
2013-07-09 18:32:00,83.7,73.3,29.99,West,276,0.0,0.0,71,0.00,,---,0.00,VWS V14.01,2013-07-09 22:32:00,
2013-07-09 18:37:00,83.5,73.5,29.99,West,276,0.0,0.0,72,0.00,,---,0.00,VWS V14.01,2013-07-09 22:37:00,
2013-07-09 18:42:00,83.2,73.2,29.99,North,359,0.0,1.0,72,0.00,,---,0.00,VWS V14.01,2013-07-09 22:42:00,
2013-07-09 18:47:00,83.0,73.5,29.99,North,358,0.0,1.0,73,0.00,,---,0.00,VWS V14.01,2013-07-09 22:47:00,
2013-07-09 18:52:00,82.8,74.1,29.99,NW,307,0.0,1.0,75,0.00,,---,0.00,VWS V14.01,2013-07-09 22:52:00,
2013-07-09 18:57:00,82.6,74.3,29.99,NW,307,0.0,1.0,76,0.00,,---,0.00,VWS V14.01,2013-07-09 22:57:00,
2013-07-09 19:02:00,82.2,74.3,29.99,NW,307,0.0,0.0,77,0.00,,---,0.00,VWS V14.01,2013-07-09 23:02:00,
2013-07-09 19:07:00,81.9,74.4,29.99,WNW,293,0.0,1.0,78,0.00,,---,0.00,VWS V14.01,2013-07-09 23:07:00,
2013-07-09 19:12:00,81.8,74.3,29.99,WSW,257,1.0,1.0,78,0.00,,---,0.00,VWS V14.01,2013-07-09 23:12:00,
2013-07-09 19:17:00,82.0,72.9,30.00,West,273,1.0,2.0,74,0.00,,---,0.00,VWS V14.01,2013-07-09 23:17:00,
2013-07-09 19:22:00,82.3,72.4,29.99,West,262,3.0,4.0,72,0.00,,---,0.00,VWS V14.01,2013-07-09 23:22:00,
2013-07-09 19:27:00,82.7,71.5,29.99,West,274,2.0,4.0,69,0.00,,---,0.00,VWS V14.01,2013-07-09 23:27:00,
2013-07-09 19:32:00,82.8,71.6,29.99,WSW,256,0.0,0.0,69,0.00,,---,0.00,VWS V14.01,2013-07-09 23:32:00,
2013-07-09 19:37:00,82.6,71.4,30.00,NW,309,2.0,7.0,69,0.00,,---,0.00,VWS V14.01,2013-07-09 23:37:00,
2013-07-09 19:42:00,82.3,70.7,30.00,NNW,337,3.0,7.0,68,0.00,,---,0.00,VWS V14.01,2013-07-09 23:42:00,
2013-07-09 19:47:00,82.0,70.4,30.00,NW,315,2.0,7.0,68,0.00,,---,0.00,VWS V14.01,2013-07-09 23:47:00,
2013-07-09 19:52:00,81.4,68.5,30.00,West,262,4.0,7.0,65,0.00,,---,0.00,VWS V14.01,2013-07-09 23:52:00,
2013-07-09 19:57:00,80.6,67.8,30.00,WSW,254,4.0,7.0,65,0.00,,---,0.00,VWS V14.01,2013-07-09 23:57:00,
2013-07-09 20:02:00,80.1,67.7,30.00,West,266,2.0,5.0,66,0.00,,---,0.00,VWS V14.01,2013-07-10 00:02:00,
2013-07-09 20:07:00,79.5,67.2,30.00,West,269,3.0,8.0,66,0.00,,---,0.00,VWS V14.01,2013-07-10 00:07:00,
2013-07-09 20:12:00,79.1,67.2,30.00,WSW,256,2.0,8.0,67,0.00,,---,0.00,VWS V14.01,2013-07-10 00:12:00,
2013-07-09 20:17:00,79.0,67.6,30.00,West,274,4.0,8.0,68,0.00,,---,0.00,VWS V14.01,2013-07-10 00:17:00,
2013-07-09 20:22:00,78.8,67.4,30.00,West,263,0.0,8.0,68,0.00,,---,0.00,VWS V14.01,2013-07-10 00:22:00,
2013-07-09 20:27:00,78.7,66.8,30.00,WSW,251,2.0,8.0,67,0.00,,---,0.00,VWS V14.01,2013-07-10 00:27:00,
2013-07-09 20:32:00,78.6,66.7,30.00,West,260,0.0,1.0,67,0.00,,---,0.00,VWS V14.01,2013-07-10 00:32:00,
2013-07-09 20:37:00,78.5,66.6,30.00,WSW,257,0.0,3.0,67,0.00,,---,0.00,VWS V14.01,2013-07-10 00:37:00,
2013-07-09 20:42:00,78.5,66.6,30.00,West,263,0.0,3.0,67,0.00,,---,0.00,VWS V14.01,2013-07-10 00:42:00,
2013-07-09 20:47:00,78.3,66.9,30.00,West,263,0.0,3.0,68,0.00,,---,0.00,VWS V14.01,2013-07-10 00:47:00,
2013-07-09 20:52:00,78.2,66.8,30.01,WSW,257,0.0,3.0,68,0.00,,---,0.00,VWS V14.01,2013-07-10 00:52:00,
2013-07-09 20:57:00,78.2,67.2,30.01,WSW,256,0.0,3.0,69,0.00,,---,0.00,VWS V14.01,2013-07-10 00:57:00,
2013-07-09 21:02:00,78.1,66.7,30.01,WSW,256,0.0,0.0,68,0.00,,---,0.00,VWS V14.01,2013-07-10 01:02:00,
2013-07-09 21:07:00,78.0,67.0,30.01,WSW,256,0.0,0.0,69,0.00,,---,0.00,VWS V14.01,2013-07-10 01:07:00,
2013-07-09 21:12:00,77.9,67.3,30.01,WSW,256,0.0,0.0,70,0.00,,---,0.00,VWS V14.01,2013-07-10 01:12:00,
2013-07-09 21:17:00,77.8,67.2,30.01,WSW,256,0.0,1.0,70,0.00,,---,0.00,VWS V14.01,2013-07-10 01:17:00,
2013-07-09 21:22:00,77.7,67.1,30.01,WSW,256,0.0,1.0,70,0.00,,---,0.00,VWS V14.01,2013-07-10 01:22:00,
2013-07-09 21:27:00,77.6,67.5,30.02,WSW,256,0.0,1.0,71,0.00,,---,0.00,VWS V14.01,2013-07-10 01:27:00,
2013-07-09 21:32:00,77.4,67.7,30.02,WSW,256,0.0,0.0,72,0.00,,---,0.00,VWS V14.01,2013-07-10 01:32:00,
2013-07-09 21:37:00,77.3,68.0,30.02,WSW,257,0.0,1.0,73,0.00,,---,0.00,VWS V14.01,2013-07-10 01:37:00,
2013-07-09 21:42:00,77.2,68.3,30.02,WSW,257,0.0,1.0,74,0.00,,---,0.00,VWS V14.01,2013-07-10 01:42:00,
2013-07-09 21:47:00,77.2,67.9,30.02,West,266,0.0,1.0,73,0.00,,---,0.00,VWS V14.01,2013-07-10 01:47:00,
2013-07-09 21:52:00,77.1,68.2,30.02,West,266,0.0,1.0,74,0.00,,---,0.00,VWS V14.01,2013-07-10 01:52:00,
2013-07-09 21:57:00,77.0,68.5,30.02,SSW,198,0.0,1.0,75,0.00,,---,0.00,VWS V14.01,2013-07-10 01:57:00,
2013-07-09 22:02:00,77.0,68.5,30.02,SSW,199,0.0,0.0,75,0.00,,---,0.00,VWS V14.01,2013-07-10 02:02:00,
2013-07-09 22:07:00,77.0,68.9,30.02,SSW,200,0.0,0.0,76,0.00,,---,0.00,VWS V14.01,2013-07-10 02:07:00,
2013-07-09 22:12:00,76.9,68.8,30.02,WSW,252,0.0,0.0,76,0.00,,---,0.00,VWS V14.01,2013-07-10 02:12:00,
2013-07-09 22:17:00,76.7,68.9,30.02,WSW,252,0.0,0.0,77,0.00,,---,0.00,VWS V14.01,2013-07-10 02:17:00,
2013-07-09 22:22:00,76.6,69.2,30.02,WSW,250,0.0,0.0,78,0.00,,---,0.00,VWS V14.01,2013-07-10 02:22:00,
2013-07-09 22:27:00,76.5,69.1,30.02,WSW,251,0.0,0.0,78,0.00,,---,0.00,VWS V14.01,2013-07-10 02:27:00,
2013-07-09 22:32:00,76.4,69.4,30.02,WSW,251,0.0,0.0,79,0.00,,---,0.00,VWS V14.01,2013-07-10 02:32:00,
2013-07-09 22:37:00,76.3,69.3,30.03,WSW,251,0.0,0.0,79,0.00,,---,0.00,VWS V14.01,2013-07-10 02:37:00,
2013-07-09 22:42:00,76.2,69.6,30.03,WSW,252,0.0,0.0,80,0.00,,---,0.00,VWS V14.01,2013-07-10 02:42:00,
2013-07-09 22:47:00,76.0,69.4,30.03,WSW,251,0.0,0.0,80,0.00,,---,0.00,VWS V14.01,2013-07-10 02:47:00,
2013-07-09 22:52:00,75.9,69.3,30.03,WSW,252,0.0,0.0,80,0.00,,---,0.00,VWS V14.01,2013-07-10 02:52:00,
2013-07-09 22:57:00,75.9,69.7,30.03,WSW,252,0.0,0.0,81,0.00,,---,0.00,VWS V14.01,2013-07-10 02:57:00,
2013-07-09 23:02:00,75.9,69.7,30.03,WSW,250,0.0,0.0,81,0.00,,---,0.00,VWS V14.01,2013-07-10 03:02:00,
2013-07-09 23:07:00,76.0,69.8,30.03,West,276,0.0,0.0,81,0.00,,---,0.00,VWS V14.01,2013-07-10 03:07:00,
2013-07-09 23:12:00,76.0,69.8,30.03,West,276,0.0,0.0,81,0.00,,---,0.00,VWS V14.01,2013-07-10 03:12:00,
2013-07-09 23:17:00,76.0,69.8,30.03,West,276,0.0,0.0,81,0.00,,---,0.00,VWS V14.01,2013-07-10 03:17:00,
2013-07-09 23:22:00,76.0,69.8,30.03,West,276,0.0,0.0,81,0.00,,---,0.00,VWS V14.01,2013-07-10 03:22:00,
2013-07-09 23:27:00,76.0,70.1,30.03,West,276,0.0,0.0,82,0.00,,---,0.00,VWS V14.01,2013-07-10 03:27:00,
2013-07-09 23:32:00,76.0,70.1,30.03,West,276,0.0,0.0,82,0.00,,---,0.00,VWS V14.01,2013-07-10 03:32:00,
2013-07-09 23:37:00,75.9,70.0,30.03,West,276,0.0,0.0,82,0.00,,---,0.00,VWS V14.01,2013-07-10 03:37:00,
2013-07-09 23:42:00,75.8,69.9,30.03,West,276,0.0,0.0,82,0.00,,---,0.00,VWS V14.01,2013-07-10 03:42:00,
2013-07-09 23:47:00,75.8,70.3,30.02,West,276,0.0,0.0,83,0.00,,---,0.00,VWS V14.01,2013-07-10 03:47:00,
2013-07-09 23:52:00,75.8,70.3,30.02,West,276,0.0,0.0,83,0.00,,---,0.00,VWS V14.01,2013-07-10 03:52:00,
2013-07-09 23:57:00,75.7,70.2,30.02,West,276,0.0,0.0,83,0.00,,---,0.00,VWS V14.01,2013-07-10 03:57:00,